Theta_e
337 334 332 334 329 327 327 326 326 328 329 331 330 330 331 331 331 331 332 332 334 339 343 342 341 340 338 336 335 334 332 331 329 327 326 325 325 327 326 325 325 322 323
336 333 333 334 328 328 326 326 326 326 328 331 330 329 330 330 330 330 330 330 327 333 337 341 341 340 338 336 335 334 331 329 328 327 325 325 325 324 322 325 323 324 322
335 333 332 331 331 329 326 324 324 325 326 329 329 329 329 329 329 328 330 330 329 328 331 336 338 338 338 336 334 333 331 330 328 325 324 323 324 324 323 323 321 322 321
332 330 332 331 329 329 329 327 326 326 324 326 326 327 328 328 328 328 329 329 328 331 329 331 334 335 335 336 334 332 331 329 327 326 325 324 324 322 321 321 322 321 321
331 331 333 331 329 329 329 327 327 327 323 324 324 326 327 327 328 329 328 327 327 327 328 327 328 330 332 334 333 332 331 329 327 327 325 325 323 323 322 322 322 322 322
331 331 332 330 330 328 327 327 326 326 325 324 326 325 325 327 327 327 327 327 326 325 326 326 327 326 327 330 331 330 330 327 326 327 325 325 323 322 323 323 322 322 322
331 331 330 329 329 328 328 328 327 325 324 324 322 322 323 325 325 326 327 326 325 324 323 323 323 324 325 326 328 329 328 326 328 328 326 324 323 322 321 321 323 322 322
331 330 329 328 328 328 327 327 325 323 324 324 319 317 312 315 321 324 325 325 324 323 322 321 321 320 321 323 322 326 327 328 327 327 326 325 324 323 322 321 321 322 322
331 330 328 328 328 328 325 325 325 323 321 323 321 318 310 310 313 317 322 323 322 321 321 321 320 319 319 320 321 322 321 323 328 327 327 326 325 323 322 322 322 322 321
330 330 328 328 328 327 325 324 325 324 323 320 321 321 318 315 310 308 316 318 320 320 319 319 319 319 319 319 319 317 315 315 320 326 326 327 326 325 324 324 324 323 323
329 329 327 326 327 326 325 325 324 323 324 322 321 319 316 315 314 309 309 312 315 317 318 318 319 319 319 319 318 317 313 312 313 320 324 325 327 326 325 325 326 325 324
326 325 325 325 325 326 324 324 324 323 322 322 321 320 319 314 311 311 309 312 313 313 316 317 317 319 319 318 318 314 311 310 311 315 319 323 326 326 326 326 326 326 326
324 324 324 324 325 326 325 324 323 322 322 320 321 320 320 319 316 315 314 312 312 313 314 316 318 318 319 319 318 313 312 308 309 311 314 317 320 323 325 326 327 328 328
324 324 324 325 325 324 323 323 321 321 322 321 321 321 320 320 317 316 314 313 309 310 312 312 317 318 319 318 317 311 316 307 307 307 309 312 314 316 318 320 323 324 325
320 321 321 322 322 322 321 322 321 321 321 321 322 322 321 321 319 318 318 317 313 308 309 312 311 318 319 319 316 317 317 309 306 305 305 307 310 312 313 314 316 317 319
320 320 318 318 318 319 321 321 320 321 321 322 322 321 321 321 318 318 317 317 316 312 308 313 314 316 318 318 316 317 316 310 305 303 303 304 305 307 308 309 310 310 312
320 319 319 318 317 316 316 315 315 315 316 318 320 320 320 321 318 317 317 317 315 313 309 310 314 315 315 316 315 315 314 315 305 302 302 302 301 302 302 303 304 305 305
318 317 316 315 315 315 315 315 312 316 316 316 317 318 318 319 318 318 316 316 315 315 311 308 310 311 313 316 315 316 314 306 301 298 298 297 297 297 297 297 297 298 298
317 317 316 315 315 315 315 314 314 315 316 316 317 317 317 319 318 317 316 315 315 314 313 310 308 311 311 314 313 309 302 299 298 297 295 295 296 296 296 296 296 295 295
316 315 316 315 315 314 314 315 315 314 313 310 308 310 314 318 319 318 316 316 315 313 313 312 310 310 312 312 312 305 300 299 295 295 294 294 295 295 294 294 294 294 294
312 309 305 302 301 300 297 300 309 313 309 302 299 297 294 297 302 308 316 316 315 313 312 311 309 309 309 309 308 306 299 293 291 294 292 291 291 291 291 292 292 291 291
295 295 293 293 292 292 290 293 300 303 301 298 295 293 292 291 290 290 290 289 297 313 311 310 309 307 304 302 299 302 293 291 289 288 288 287 289 287 288 289 290 289 289
289 288 288 288 288 289 290 292 292 293 292 291 290 290 290 290 289 289 288 288 287 287 288 304 305 298 295 291 294 294 294 291 285 283 287 284 286 284 287 288 288 288 288
285 286 286 286 287 288 288 289 289 289 287 287 287 287 287 287 287 287 286 284 284 284 285 285 285 285 285 286 288 290 286 282 282 281 283 282 284 283 285 286 288 288 288
283 284 284 285 285 286 287 288 287 286 285 285 286 286 285 285 287 287 283 281 280 280 284 285 284 284 285 286 288 287 285 284 280 277 278 282 279 282 283 280 282 287 286
283 283 283 284 285 284 287 287 286 285 283 283 284 284 286 285 285 284 282 280 277 277 279 280 279 279 279 280 282 282 286 280 277 276 277 278 277 279 280 279 278 278 279
Wind_Speed
7 5 4 5 4 3 4 4 4 4 4 5 5 6 5 3 4 1 3 8 11 20 21 22 21 19 18 17 15 16 16 14 14 14 13 12 11 11 11 10 10 11 11
8 6 6 6 4 4 4 4 5 4 4 5 5 5 5 3 4 3 2 4 8 14 19 18 20 20 19 19 17 18 17 15 14 14 13 12 11 12 12 11 12 11 12
9 9 6 6 6 4 6 4 3 4 3 4 7 5 5 5 4 3 2 4 4 13 15 17 15 15 18 20 20 18 18 16 14 13 14 14 12 11 10 10 12 11 11
10 8 7 6 6 5 6 5 6 5 4 5 5 5 5 6 4 4 3 2 3 4 9 12 13 14 16 18 19 18 18 16 15 15 14 15 14 14 13 12 11 10 11
10 9 8 7 8 6 6 6 5 7 6 4 5 5 5 5 6 6 7 5 4 5 5 9 11 12 14 16 18 17 17 16 14 16 15 15 15 14 14 13 12 11 10
11 9 9 8 8 6 6 7 8 7 6 4 3 5 4 4 5 6 7 4 5 5 4 5 5 6 13 13 15 16 15 15 17 17 16 14 15 14 14 14 13 12 12
11 11 8 9 9 9 9 9 7 8 5 7 3 3 4 5 6 6 6 6 7 7 7 6 5 4 7 14 14 16 16 18 17 17 17 16 14 14 14 13 13 12 12
13 11 11 9 10 8 9 10 8 6 4 8 4 2 2 1 3 7 6 8 9 8 7 6 7 6 6 7 8 15 17 19 19 17 16 16 14 13 13 13 13 13 13
14 13 12 9 9 8 8 9 9 8 7 6 7 4 3 3 2 1 8 9 10 8 8 8 8 7 6 6 9 11 13 12 15 18 17 16 16 16 16 16 16 16 15
14 13 12 11 11 8 9 9 9 9 7 8 6 3 2 5 4 2 1 2 9 10 9 7 7 7 7 6 8 10 12 12 12 15 17 18 18 18 17 16 17 16 16
13 12 12 11 10 8 8 10 10 10 8 7 7 4 2 1 1 3 3 3 1 5 7 7 7 7 8 7 7 8 12 13 12 11 13 17 18 18 18 18 18 18 17
9 12 12 10 9 9 9 8 9 10 8 6 6 5 7 5 4 3 2 5 7 4 4 4 6 6 7 7 9 12 13 13 13 12 11 11 14 16 18 19 19 18 18
9 12 12 10 9 9 9 9 8 8 9 9 9 7 6 8 2 4 3 4 4 2 4 4 7 7 7 7 9 13 14 14 14 14 13 11 11 12 12 16 17 17 17
10 13 11 11 9 9 8 7 5 7 9 10 12 9 7 8 7 5 5 7 3 2 2 5 7 8 8 8 10 16 10 16 16 14 13 13 13 13 12 11 12 14 16
7 10 11 10 9 8 7 6 6 9 8 9 10 10 9 8 7 8 8 9 7 7 9 5 4 10 9 8 10 10 11 13 16 16 14 13 12 12 13 12 12 11 12
10 11 10 9 8 6 7 8 5 5 7 6 7 9 8 7 9 9 8 9 7 8 5 4 7 5 12 9 9 10 10 9 12 13 14 11 8 7 7 6 7 7 8
9 9 8 9 8 7 5 4 4 5 5 5 6 7 11 12 10 10 9 9 8 6 4 3 3 3 8 9 5 5 5 5 6 5 7 6 5 4 3 4 3 3 4
9 10 9 9 8 7 6 6 5 4 5 9 11 12 12 8 12 15 12 13 11 8 4 5 3 3 3 8 8 9 8 8 9 13 17 15 15 14 14 15 14 15 15
10 10 10 9 7 6 6 5 5 4 6 8 7 8 8 9 12 11 13 13 11 9 7 4 3 2 3 5 8 8 9 9 9 18 18 17 17 16 16 16 16 17 17
11 8 8 8 6 5 3 3 4 3 4 1 4 5 5 10 16 18 15 14 11 10 9 8 5 4 4 3 6 9 6 4 6 8 13 13 14 18 17 18 18 18 17
9 9 10 8 6 6 3 0 2 4 3 4 6 7 11 12 3 5 7 10 12 11 11 9 8 3 4 5 9 4 4 4 4 2 7 5 6 6 7 13 15 16 16
12 11 10 9 8 6 9 4 3 8 7 6 7 8 8 12 16 21 24 28 12 13 12 8 6 7 4 4 3 5 6 4 4 2 5 4 3 5 5 5 13 14 15
14 13 12 11 9 8 13 9 15 9 9 8 8 7 8 8 10 9 16 22 24 24 20 2 8 3 4 2 5 3 3 3 4 2 5 4 2 5 4 6 11 13 12
14 13 13 11 10 10 15 13 15 12 12 11 10 10 9 10 10 11 13 17 18 19 15 11 11 8 7 5 5 3 5 9 8 5 2 4 1 3 3 3 9 11 12
15 15 12 14 13 12 17 13 11 12 13 13 12 11 10 11 15 16 15 16 15 13 18 28 26 25 24 20 10 8 6 7 4 3 5 3 2 3 2 5 4 12 15
15 11 14 14 21 15 20 15 12 8 13 10 12 14 21 16 21 20 13 12 15 10 10 12 12 18 18 18 20 10 4 6 5 2 3 3 1 1 4 2 4 5 6
Wind_Direction
193 177 175 174 167 146 152 150 146 143 150 148 163 168 146 145 118 323 282 186 180 175 168 166 160 166 165 164 157 157 159 161 162 158 154 161 166 157 153 156 160 163 160
188 185 174 184 168 165 142 150 162 149 153 158 169 173 147 134 115 201 253 258 223 184 173 170 170 175 174 169 165 166 164 165 167 168 165 167 169 168 170 156 169 161 169
185 179 173 183 186 154 136 135 134 128 154 151 178 163 154 141 142 109 355 303 255 182 170 182 184 185 180 177 170 172 166 171 170 181 169 176 176 167 169 176 176 176 180
174 169 176 180 171 157 168 173 173 170 179 178 168 191 166 173 156 169 176 210 251 201 177 181 174 189 189 180 169 181 172 170 171 173 178 178 175 175 178 180 178 189 192
177 180 182 170 160 169 179 182 174 181 185 201 182 164 160 181 174 197 201 183 213 251 175 181 166 174 171 174 177 183 176 171 176 179 186 181 185 180 181 187 186 191 203
183 175 190 174 164 176 185 180 181 182 181 187 184 163 187 186 194 200 206 189 184 200 219 153 164 172 164 163 175 180 184 180 193 188 184 187 195 194 185 191 195 199 205
182 181 186 174 177 184 194 183 184 183 176 168 152 173 176 180 179 198 197 195 190 190 191 169 161 161 170 170 175 184 195 201 195 191 188 195 197 200 200 203 200 205 214
179 183 179 179 178 178 180 182 185 184 182 174 174 120 181 174 223 208 208 203 199 181 182 177 165 169 174 176 180 182 202 203 196 197 198 191 196 203 208 211 215 220 223
181 182 178 175 178 179 182 186 188 188 183 180 180 150 150 200 131 182 220 202 188 181 186 174 175 175 175 160 175 191 199 204 201 196 202 192 197 200 208 214 218 223 226
179 177 176 178 181 176 180 185 187 190 187 181 187 200 150 143 166 180 196 218 187 178 176 177 179 179 176 173 183 184 193 200 200 211 202 199 203 202 207 216 221 224 230
173 168 171 174 181 174 177 182 189 194 201 191 193 163 159 156 151 140 173 157 132 182 174 176 182 183 182 180 188 199 196 201 204 203 216 210 209 205 209 216 222 224 229
174 172 169 172 173 180 176 182 193 194 196 213 206 191 198 182 186 163 149 177 182 153 157 170 181 191 189 188 194 195 198 206 211 212 213 219 217 215 214 218 223 225 232
176 179 166 168 175 182 180 177 188 194 194 203 206 195 209 212 186 196 140 159 172 141 165 174 201 194 196 195 200 194 198 203 211 215 218 217 218 225 224 227 229 231 236
176 165 162 166 160 167 172 181 178 207 206 207 214 207 200 209 205 191 171 161 133 153 131 165 196 198 197 198 203 193 201 200 209 216 218 218 219 224 226 227 233 236 240
154 156 148 150 156 163 167 175 198 202 209 213 215 213 216 214 206 206 203 190 178 181 194 188 163 197 194 191 204 193 203 198 206 210 213 218 223 224 225 225 232 239 246
155 149 145 141 142 159 167 186 181 188 203 207 212 208 215 213 199 196 188 192 185 181 181 166 198 186 190 192 191 189 200 187 192 196 209 217 223 228 212 210 220 241 260
156 149 151 136 149 156 153 163 180 201 214 238 247 232 227 221 205 196 193 180 183 170 152 165 159 175 174 183 166 164 127 122 83 109 151 156 162 164 182 190 205 164 93
160 148 145 144 148 159 164 178 200 208 234 249 246 237 238 233 211 197 192 193 187 189 149 160 168 138 138 185 155 140 113 90 88 78 83 90 93 98 96 92 91 92 94
144 143 139 150 152 156 176 176 197 220 236 245 247 241 238 225 213 203 191 192 189 181 178 142 149 138 104 141 136 106 101 98 99 94 90 88 87 92 96 99 99 96 94
132 133 136 135 141 149 145 161 194 204 238 288 355 328 287 245 232 208 195 187 178 175 182 160 132 148 127 139 133 134 126 113 108 94 85 88 99 91 88 89 90 89 90
99 96 96 81 80 85 65 88 254 162 116 65 45 38 23 11 28 163 174 186 177 177 164 151 146 131 133 158 163 145 107 116 88 131 96 84 82 78 74 74 82 87 86
64 71 67 70 61 47 352 218 205 88 75 64 54 41 35 26 49 70 71 60 53 179 161 150 157 166 145 134 129 150 126 142 148 347 98 75 75 81 78 75 91 93 94
63 62 59 57 45 35 28 61 96 87 81 66 58 52 47 33 37 53 65 60 52 45 45 82 143 113 129 140 130 114 112 108 112 102 116 89 67 94 91 95 98 94 89
60 58 52 52 53 38 39 52 82 87 79 65 60 60 63 50 42 64 64 68 59 51 39 53 67 73 70 68 67 61 102 101 88 63 21 108 99 83 96 79 90 86 79
60 54 50 50 48 42 40 47 73 82 80 70 61 60 63 66 68 77 81 79 70 57 57 69 70 64 60 54 62 107 119 121 100 47 7 96 121 106 80 51 31 85 82
65 62 58 52 52 45 41 46 66 75 80 75 68 62 66 74 73 75 79 85 81 55 55 56 53 52 48 48 43 48 54 104 113 98 25 89 100 160 128 96 61 64 67